atp2osm logo atp2osm

Marques à intégrer

Liste des marques identifiées pour lesquelles aucun spiders AllThePlaces n'existe. Cette liste permet aux contributeurs d'AllThePlaces d'avoir une vision des marques manquantes.

Ajouter une marque

Marque
Ajouté par
Date d'ajout
Présence dans ATP
 
Réinitialiser

472 marques

Nom Wikidata Estimation Ajouté par Date Modifié par
Safti 129 K12230LF 04/09/2026
AJP Immobilier 110 K12230LF 04/09/2026
Bleuforêt Q2906440 30 Patrick78 03/09/2026 Rémi_ le 03/09/2026
Le Tanneur Q3227527 40 Patrick78 03/09/2026 Rémi_ le 04/09/2026
La Belle-Iloise Q17354025 95 Patrick78 03/09/2026 Rémi_ le 03/09/2026
Intimissimi (doublon) Q305404 (doublon) 75 Patrick78 03/09/2026 K12230LF le 04/09/2026
Kawasaki Patrick78 03/09/2026
Yamaha Patrick78 03/09/2026
Accor Patrick78 03/09/2026
Elsié Santé Q127603214 260 K12230LF 03/09/2026 Rémi_ le 03/09/2026
Espace Clôture 23 jbcharron 01/09/2026
Norma Q450180 70 osm_user1234 31/08/2026
Ice-Store osm_user1234 31/08/2026
Ice Market 500 osm_user1234 31/08/2026
Glaces Moustache Q112202767 50 osm_user1234 30/08/2026 nuxper_np le 30/08/2026
Kookaï Q1783759 50 osm_user1234 30/08/2026
Block'Out 13 osm_user1234 30/08/2026
Arkose Q124329187 24 osm_user1234 30/08/2026
Vertical'Art 15 osm_user1234 30/08/2026
Climb Up Q135490019 25 osm_user1234 30/08/2026
Inter Caves Q132055529 70 osm_user1234 30/08/2026
Cabinet Bedin 65 osm_user1234 30/08/2026
Cash Converters Q124606631 32 osm_user1234 30/08/2026
Bijou Brigitte Q599545 70 osm_user1234 30/08/2026
Temporis Q121136602 200 osm_user1234 30/08/2026
Guinot Q123408957 80 osm_user1234 30/08/2026
Boulangerie Louise Q127591514 osm_user1234 30/08/2026
Synlab Q106847432 390 osm_user1234 30/08/2026
BYD Q27423 osm_user1234 30/08/2026
La Panetière Q100712234 100 osm_user1234 30/08/2026
Prévoir Q3117531 110 osm_user1234 30/08/2026
Opel Q40966 110 osm_user1234 30/08/2026
Éléphant Bleu Q3144358 400 osm_user1234 30/08/2026
Dekra Automotive Q16040118 1500 osm_user1234 30/08/2026
Bose Q328568 10 osm_user1234 30/08/2026
Bang & Olufsen Q790020 15 osm_user1234 30/08/2026
Gueuleton 22 osm_user1234 30/08/2026
WeFix Q137761815 120 osm_user1234 30/08/2026
Maliterie Q125716842 36 osm_user1234 30/08/2026
Crêp'eat Q141266582 50 osm_user1234 30/08/2026 Rémi_ le 03/09/2026
Guilde des Orfèvres 46 osm_user1234 30/08/2026
Gang of Pizza Q89123626 700 osm_user1234 30/08/2026
Gamecash Q3094962 27 osm_user1234 30/08/2026
Wash'n dry Q127277495 498 osm_user1234 30/08/2026
Le Comptoir du Malt 25 osm_user1234 30/08/2026
Screwfix Q7439115 37 osm_user1234 29/08/2026
Cofféa 30 osm_user1234 29/08/2026
Enjoy Tacos Q141242529 47 osm_user1234 29/08/2026 Rémi_ le 31/08/2026
Vivason Q109832807 101 osm_user1234 29/08/2026
Zoomalia 39 osm_user1234 29/08/2026
Fresh Burritos Q60963913 osm_user1234 29/08/2026 osm_user1234 le 29/08/2026
Carter Cash 102 osm_user1234 29/08/2026
Haribo Q169552 25 osm_user1234 29/08/2026
Delbard 33 osm_user1234 29/08/2026
Five Pizza Original Q136530646 46 osm_user1234 29/08/2026
La Taverne - Table de caractère Q141215923 27 jbcharron 29/08/2026 nuxper_np le 29/08/2026
Signorini Tartufi 30 osm_user1234 29/08/2026
Espace Aubade Q126620187 300 osm_user1234 29/08/2026
La Boîte à Pizza Q3206840 35 osm_user1234 29/08/2026
Arthur 35 osm_user1234 29/08/2026
Pizza Time Q134879021 65 osm_user1234 29/08/2026
Eat Salad Q141214255 87 osm_user1234 29/08/2026 Rémi_ le 29/08/2026
La Casa de las Carcasas Q127275290 100 osm_user1234 29/08/2026
La Chaise Longue Q130543868 98 osm_user1234 29/08/2026
Aäsgard 45 osm_user1234 29/08/2026
Jysk Q138913 66 osm_user1234 29/08/2026
Le Jardin des Fleurs 80 osm_user1234 29/08/2026
Promocash Q3407427 130 osm_user1234 29/08/2026
Bébé 9 90 osm_user1234 29/08/2026
Izac Q127514827 110 osm_user1234 29/08/2026
Cleor Q128779240 140 osm_user1234 29/08/2026
Christine Laure Q90472537 70 osm_user1234 29/08/2026
Inovie Q106856568 500 osm_user1234 29/08/2026
Vog Coiffure Q141223643 90 osm_user1234 29/08/2026 Rémi_ le 30/08/2026
L'Occitane Q1880676 85 osm_user1234 29/08/2026
Cimm Immobilier 150 osm_user1234 29/08/2026
Bastide Q2887693 170 osm_user1234 29/08/2026
Amorino Q2843884 100 osm_user1234 28/08/2026
Mister Minit Q1939269 170 osm_user1234 28/08/2026
Crédit Mutuel de Bretagne Q3006236 100 osm_user1234 28/08/2026
La Croissanterie Q3207961 180 osm_user1234 28/08/2026
Distinxion Q141160707 120 osm_user1234 28/08/2026
Intersport Q666888 931 osm_user1234 28/08/2026 K12230LF le 30/08/2026
Subway Q244457 320 osm_user1234 28/08/2026
Class'Croute Q2975695 60 osm_user1234 28/08/2026
Primark Q137023 30 osm_user1234 27/08/2026
Le Comptoir Irlandais Q3221668 55 osm_user1234 27/08/2026
Culinarion Q141203030 50 osm_user1234 27/08/2026 Rémi_ le 28/08/2026
Metro Q13610282 100 osm_user1234 27/08/2026 Rémi_ le 28/08/2026
Cash Express Q136374457 130 osm_user1234 27/08/2026
France Services Q24931343 2800 K12230LF 27/08/2026 Hagatopaxi le 27/08/2026
La Poste Q373724 6985 K12230LF 27/08/2026
Monsieur Store Q113686692 114 osm_user1234 27/08/2026
Vib's Q121322478 120 osm_user1234 27/08/2026
Claire's Q2974996 120 osm_user1234 27/08/2026
Entendre Q132101015 350 osm_user1234 26/08/2026
Century 21 Q1054480 955 osm_user1234 26/08/2026 K12230LF le 04/09/2026
Monbana Q28495865 25 osm_user1234 26/08/2026
Ladurée Q1216332 18 osm_user1234 26/08/2026
HEMA Q903805 60 osm_user1234 26/08/2026
C'est deux euros Q141181414 48 osm_user1234 26/08/2026 Rémi_ le 26/08/2026
So.bio Q141195843 60 osm_user1234 26/08/2026 Rémi_ le 27/08/2026
DistriCenter Q121840469 170 osm_user1234 25/08/2026
Aviva Cuisines Q114905331 100 osm_user1234 25/08/2026
Cigaverte Q139670887 60 osm_user1234 25/08/2026
L'Entrepôt du Bricolage Q141205456 35 osm_user1234 25/08/2026 Rémi_ le 28/08/2026
Carac 30 osm_user1234 25/08/2026
Laiterie Gilbert Q132050239 40 osm_user1234 25/08/2026
La Halle au Sommeil Q141196598 85 osm_user1234 25/08/2026 Rémi_ le 28/08/2026
Thélem Q18745508 300 osm_user1234 25/08/2026
Fitness Boutique Q65151892 100 osm_user1234 25/08/2026
Plein Ciel 50 osm_user1234 25/08/2026
Comptoir Des Vignes 55 osm_user1234 25/08/2026
Euro Repar Q117873546 100 osm_user1234 25/08/2026
Cuisine Plus Q132001492 55 osm_user1234 25/08/2026
Idylcar 50 osm_user1234 25/08/2026
Areas Q126901086 400 osm_user1234 25/08/2026
Lunicco 30 osm_user1234 25/08/2026
Happy Cash Q141205414 70 osm_user1234 25/08/2026 Rémi_ le 28/08/2026
Akena Q107089744 400 osm_user1234 25/08/2026
Marché aux Affaires Q105030094 300 osm_user1234 25/08/2026
Big M 70 osm_user1234 25/08/2026
Cash Piscines Q128915381 70 osm_user1234 25/08/2026
CER Q2945156 400 osm_user1234 25/08/2026 osm_user1234 le 25/08/2026
Sergic Q3479636 35 osm_user1234 25/08/2026
Salaün Holidays Q121096308 100 osm_user1234 25/08/2026
Zolpan Q126875048 50 osm_user1234 25/08/2026
AS Auto Sécurité Contrôle Technique Q110603508 100 osm_user1234 25/08/2026
French Coffee Shop Q139820904 50 osm_user1234 25/08/2026
Optique Lafayette 70 osm_user1234 25/08/2026
L'Adresse Q121484302 350 osm_user1234 25/08/2026 osm_user1234 le 25/08/2026
Bodyhit Q127575875 100 osm_user1234 25/08/2026
Henri Boucher Q130243858 70 osm_user1234 25/08/2026
Cuir Center 60 osm_user1234 25/08/2026
Clopinette 60 osm_user1234 25/08/2026
Le Petit Vapoteur Q86665222 100 osm_user1234 25/08/2026
Calipage Q130010188 55 osm_user1234 25/08/2026
Carador 55 osm_user1234 25/08/2026
Optic Duroc 65 osm_user1234 25/08/2026
Fiducial Q3071473 90 osm_user1234 25/08/2026
Espaces Atypiques Q139386727 60 osm_user1234 25/08/2026
La Criée Q141177771 22 Rémi_ 25/08/2026
Finsbury Q141242163 60 osm_user1234 25/08/2026 Rémi_ le 31/08/2026
Actis Location 80 osm_user1234 25/08/2026
Aquila RH Q138796159 90 osm_user1234 25/08/2026
Distri Club Médical 90 osm_user1234 25/08/2026
L'Onglerie Q127405009 100 osm_user1234 25/08/2026
GlassAuto Q131983594 270 osm_user1234 25/08/2026
Pulsat Q140797047 180 osm_user1234 25/08/2026
Attila 125 osm_user1234 25/08/2026
Corep Q73111125 40 jbcharron 25/08/2026
B&M Q4836931 120 osm_user1234 25/08/2026 osm_user1234 le 25/08/2026
Le Comptoir de Mathilde Q105307034 90 osm_user1234 25/08/2026
Bazarland Q124016999 60 osm_user1234 25/08/2026
Terranimo 50 osm_user1234 25/08/2026
Quéguiner Matériaux Q3414861 35 osm_user1234 25/08/2026
LaMaison.fr Q127596118 150 osm_user1234 25/08/2026
Bruno Flaujac 70 osm_user1234 25/08/2026
Tollens Q127515008 150 osm_user1234 25/08/2026 nuxper_np le 30/08/2026
Cavavin Q36017956 150 osm_user1234 25/08/2026 Rémi_ le 25/08/2026
Blue Box Q130348486 40 osm_user1234 25/08/2026
Elancia Q138780792 45 osm_user1234 25/08/2026
Adéquat Q126916756 100 osm_user1234 25/08/2026
In Extenso Q126758927 250 osm_user1234 25/08/2026
Marcel & fils Q125022585 60 osm_user1234 25/08/2026
Hmarket Q119994958 15 osm_user1234 25/08/2026
Guy Degrenne Q3121712 10 osm_user1234 25/08/2026
Meilleurtaux Q3304699 300 osm_user1234 25/08/2026
Sherpa Q3481967 120 osm_user1234 25/08/2026
Mezzo di Pasta Q1926453 25 osm_user1234 25/08/2026
Saint-Maclou Q3462843 100 osm_user1234 25/08/2026
Benoit Audition Q114810641 80 osm_user1234 25/08/2026
Satoriz Q130144737 40 osm_user1234 25/08/2026
Master Poulet Q139504926 35 osm_user1234 25/08/2026
Bagelstein Q24354342 50 osm_user1234 25/08/2026
Chez l'Ancien Q130216395 30 osm_user1234 25/08/2026
La Procure Q3211977 30 osm_user1234 25/08/2026
Yves Delorme Q131196262 50 osm_user1234 25/08/2026
Les Burgers de Papa Q111059493 20 osm_user1234 25/08/2026
Laura Todd Q138313277 30 osm_user1234 25/08/2026
Liberty Gym Q101768284 35 osm_user1234 25/08/2026
Gibert Joseph Q3105347 25 osm_user1234 25/08/2026
Maison Bécam Q130232721 40 osm_user1234 25/08/2026
Madura Q3276259 28 osm_user1234 25/08/2026
Réauté Chocolat Q56307634 100 osm_user1234 25/08/2026
Mister Garden Q138312953 25 osm_user1234 25/08/2026
Indiana Café Q109315295 25 osm_user1234 25/08/2026
Samse Q3470941 70 osm_user1234 25/08/2026
Printemps Q1535260 20 osm_user1234 25/08/2026
PB Poulet Braisé Q130218949 30 osm_user1234 25/08/2026
L'Eau Vive Q89200423 30 osm_user1234 25/08/2026
Bagel Corner Q104649272 30 osm_user1234 25/08/2026
Bricopro Q110069152 100 osm_user1234 25/08/2026
Le Pétrin Ribeïrou Q89209633 40 osm_user1234 25/08/2026
Tutti Pizza Q130248532 30 osm_user1234 25/08/2026
Biomonde Q120801927 100 osm_user1234 25/08/2026
Dammann Frères Q3012927 30 osm_user1234 25/08/2026
Signorizza Q101603846 37 osm_user1234 25/08/2026
Voisin Q3562373 30 osm_user1234 25/08/2026
The Coffee Q112042753 35 osm_user1234 25/08/2026
Unibio Q106686848 40 osm_user1234 25/08/2026
day by day Q48748765 30 osm_user1234 25/08/2026
Megarama Q96707027 35 osm_user1234 25/08/2026
Veneta Cucine Q136439356 50 osm_user1234 25/08/2026
Montres and Co Q105082480 35 osm_user1234 25/08/2026
Le Chocolat Alain Ducasse Q114374063 40 osm_user1234 25/08/2026
Cinéode Q97017093 40 osm_user1234 25/08/2026
Bexley Q101247434 40 osm_user1234 25/08/2026
BZB Q27962159 90 osm_user1234 25/08/2026
Pizza Cosy Q102115246 77 osm_user1234 25/08/2026
Fresh Q130214654 80 osm_user1234 25/08/2026
Synergie Q130540603 50 osm_user1234 25/08/2026
Chateau d'Ax Q100249791 50 osm_user1234 25/08/2026
Memphis Q101641106 45 osm_user1234 25/08/2026
NOUS anti-gaspi Q130144283 30 osm_user1234 25/08/2026
Meubles Gautier Q138426875 50 osm_user1234 25/08/2026
Carlance Q91601625 50 osm_user1234 25/08/2026
Mobilier de France Q48759410 100 osm_user1234 25/08/2026
Avril Q104744254 50 osm_user1234 25/08/2026
Cojean Q2981929 40 osm_user1234 25/08/2026
Vertbaudet Q2518521 60 osm_user1234 25/08/2026
Cotélac Q2998637 50 osm_user1234 25/08/2026
Adidas Q3895 60 osm_user1234 25/08/2026
Tryba Q3541198 60 osm_user1234 25/08/2026
Saint James Q3463859 60 osm_user1234 25/08/2026
Sonance Audition Q114932560 70 osm_user1234 25/08/2026
Ducati Q271812 60 osm_user1234 25/08/2026
Barnes Q111207452 60 osm_user1234 25/08/2026
Crit Q126912884 370 osm_user1234 25/08/2026
Parfois Q7136948 60 osm_user1234 25/08/2026
La Pataterie Q20899937 50 osm_user1234 25/08/2026
Léon Q21041507 60 osm_user1234 25/08/2026
Schmidt Q3487620 400 osm_user1234 25/08/2026
CGR Q2931406 75 osm_user1234 25/08/2026
Ideal Audition Q105178379 70 osm_user1234 25/08/2026
Qipao Q129985055 75 osm_user1234 25/08/2026
Grand Litier Q21030208 130 osm_user1234 25/08/2026
Jacadi Q3157058 80 osm_user1234 25/08/2026
Bréal Q117235747 90 osm_user1234 25/08/2026
Damart Q3012602 90 osm_user1234 25/08/2026
Yesss Électrique Q91307483 100 osm_user1234 25/08/2026
Wolford Q431607 20 Patrick78 23/08/2026 osm_user1234 le 25/08/2026
Dim Q3028013 25 Patrick78 23/08/2026 osm_user1234 le 25/08/2026
david and son 27 barley383 19/08/2026
Interaction interim 150 barley383 19/08/2026
Milleis Banque Privée Q109045050 25 barley383 19/08/2026
Les Chérubins Q141220403 200 barley383 19/08/2026 nuxper_np le 30/08/2026
domino rh Q141174923 200 barley383 19/08/2026 Rémi_ le 25/08/2026
Crédit social des fonctionnaires Q3006246 30 barley383 19/08/2026
Lynx Optique Q25387428 70 barley383 19/08/2026
Club Med Q1076645 50 barley383 19/08/2026
Des Petits Hauts Q104197445 90 barley383 19/08/2026
Lamy Immobilier 150 barley383 19/08/2026
Gandy 7 barley383 19/08/2026
Acces vision 44 barley383 19/08/2026
K-way Q2820820 70 barley383 19/08/2026 osm_user1234 le 25/08/2026
Maty Q3300005 36 barley383 19/08/2026
Éric Bompard Q3590998 70 barley383 19/08/2026
Spartoo Q15458063 25 barley383 19/08/2026
Manfield Q58328872 35 barley383 19/08/2026
Aubade Q2870536 50 barley383 19/08/2026
Bonhomme de bois 26 barley383 19/08/2026
Café Coton Q105076734 32 barley383 19/08/2026
Cyrillus Q3009179 44 barley383 19/08/2026
Intimissimi Q305404 75 barley383 19/08/2026
Peggy Sage Q3374246 37 barley383 19/08/2026
Sylvie thiriez 40 barley383 19/08/2026
Le petit souk Q138642425 92 barley383 19/08/2026
Basilic & Co Q130248490 50 osm_user1234 18/08/2026
Maison 123 Q128033893 70 osm_user1234 18/08/2026
Monsieur Meuble Q60848824 75 osm_user1234 18/08/2026
123 Pare-Brise 70 osm_user1234 18/08/2026
Cafpi Q2932922 100 osm_user1234 18/08/2026
Nachos Q141119389 30 osm_user1234 18/08/2026
Pitaya Q114970230 90 osm_user1234 18/08/2026
Le Palais des Thés Q3225161 85 osm_user1234 18/08/2026
Mephisto Q822975 80 osm_user1234 18/08/2026
Armor Lux Q951079 75 osm_user1234 18/08/2026
Acuitis Q123571368 75 osm_user1234 18/08/2026
Bistro Régent Q98967977 70 osm_user1234 18/08/2026
Gitem Q3107853 70 osm_user1234 18/08/2026
Bocage Q104599699 55 osm_user1234 18/08/2026
Sonepar Q2301315 50 osm_user1234 18/08/2026
Le Temps des Cerises Q3228558 50 osm_user1234 18/08/2026
Agatha Q105064006 40 osm_user1234 18/08/2026
Chicken Spot Q133872934 40 osm_user1234 18/08/2026
Médor et Compagnie Q89344773 50 osm_user1234 18/08/2026
La Cervoiserie Q101788539 39 osm_user1234 18/08/2026
Faguo Q48752850 40 osm_user1234 18/08/2026
Copy-Top Q101281603 40 osm_user1234 18/08/2026
K par K Q3191596 45 osm_user1234 18/08/2026
Cyclable Q130214989 40 osm_user1234 18/08/2026
Brico Cash Q130474794 40 osm_user1234 18/08/2026
Écomiam Q130215661 37 osm_user1234 18/08/2026
Harley-Davidson Q192814 40 osm_user1234 18/08/2026
Bricoman Q2925142 42 osm_user1234 18/08/2026
Maxi Bazar Q111817854 45 osm_user1234 18/08/2026
Big Fernand Q19521346 45 osm_user1234 18/08/2026
Villaverde Q89346546 50 osm_user1234 18/08/2026
G La Dalle Q121816862 45 osm_user1234 18/08/2026
France Literie Q100249535 50 osm_user1234 18/08/2026
Promovacances Q3407444 50 osm_user1234 18/08/2026
Sophie Lebreuilly Q66372229 55 osm_user1234 18/08/2026
Bio c' Bon Q54312551 65 osm_user1234 18/08/2026
Aigle Q404391 50 osm_user1234 18/08/2026
Côté Sushi Q130731390 55 osm_user1234 18/08/2026
Culture Vélo Q130215001 60 osm_user1234 18/08/2026
La Compagnie du lit Q120749952 65 osm_user1234 18/08/2026
Kusmi Tea Q944186 60 osm_user1234 18/08/2026
Galeries Lafayette Q3094686 65 osm_user1234 18/08/2026
Les Éleveurs de la Charentonne Q130216320 20 osm_user1234 18/08/2026
Mangeons Frais Q130215824 80 osm_user1234 18/08/2026
Pro&Cie Q3406142 75 osm_user1234 18/08/2026
Sushi Shop Q3505657 80 osm_user1234 18/08/2026
La Boutique du Coiffeur Q104600156 75 osm_user1234 18/08/2026
Nestenn Immobilier Q128788942 400 osm_user1234 18/08/2026 K12230LF le 04/09/2026
Botanic Q2911642 75 osm_user1234 18/08/2026
Truffaut Q3162640 70 osm_user1234 18/08/2026
LDLC Q127164489 100 osm_user1234 18/08/2026
La Fée Maraboutée Q105429377 90 osm_user1234 18/08/2026
Lapeyre Q3117467 115 osm_user1234 18/08/2026
Brit Hotel Q2925673 100 osm_user1234 18/08/2026
Poltronesofà Q80833069 100 osm_user1234 18/08/2026
First Stop Q3072965 100 osm_user1234 18/08/2026
Le collectif des Lunetiers Q23752663 400 osm_user1234 18/08/2026 osm_user1234 le 29/08/2026
Camille Albane Q62965183 100 osm_user1234 18/08/2026
Les Petits Chaperons Rouges Q130214582 100 osm_user1234 18/08/2026
Vousfinancer Q114185120 110 osm_user1234 18/08/2026
Era Immobilier Q121496901 110 osm_user1234 18/08/2026
ADA Q57313774 110 osm_user1234 18/08/2026
CarGo Q117662226 115 osm_user1234 18/08/2026
Blackstore Q125446765 115 osm_user1234 18/08/2026
Match Q513977 115 osm_user1234 18/08/2026
Mondial Pare-Brise Q118129474 120 osm_user1234 18/08/2026
Assu 2000 Q126596934 150 osm_user1234 18/08/2026
Audition Conseil Q104904635 130 osm_user1234 18/08/2026
Le Kiosque à Pizzas Q3223839 450 osm_user1234 18/08/2026 osm_user1234 le 29/08/2026
MG Q1881443 180 osm_user1234 18/08/2026
Stéphane Plaza Immobilier Q97368097 190 osm_user1234 18/08/2026
Tape à l’Œil Q30749175 170 osm_user1234 18/08/2026
Mobalpa Q3317571 150 osm_user1234 18/08/2026
RougeGorge Q104600739 150 osm_user1234 18/08/2026
Havas Voyages Q57628091 145 osm_user1234 18/08/2026
Bonobo Q63682093 145 osm_user1234 18/08/2026
Grain de Malice Q66757157 232 osm_user1234 18/08/2026 K12230LF le 04/09/2026
Vapostore Q91257968 130 osm_user1234 18/08/2026
Stokomani Q22249328 125 osm_user1234 18/08/2026
Easycash Q105395978 115 osm_user1234 18/08/2026
Mutuelle de Poitiers Assurances Q57200940 100 osm_user1234 18/08/2026
Aésio Mutuelle Q56320205 100 osm_user1234 18/08/2026
Audilab Q117352010 100 osm_user1234 18/08/2026
Interflora Q692179 95 osm_user1234 18/08/2026
Pascal Coste Q66555630 100 osm_user1234 18/08/2026
Naturhouse Q6038807 100 osm_user1234 18/08/2026
MDA Q121069178 100 osm_user1234 18/08/2026
De Neuville Q106353063 105 osm_user1234 18/08/2026
La Boucherie Q21427479 110 osm_user1234 18/08/2026
Cultura Q3007154 110 osm_user1234 18/08/2026
Sud Express Q104826254 115 osm_user1234 18/08/2026
Éram Q16684192 115 osm_user1234 18/08/2026
Swiss Life Q667350 115 osm_user1234 18/08/2026
Harmonie Mutuelle Q3127528 120 osm_user1234 18/08/2026
V and B Q100706329 295 osm_user1234 18/08/2026 osm_user1234 le 25/08/2026
Abeille Assurances Q117012137 140 osm_user1234 18/08/2026
Chausson Matériaux Q100701530 140 osm_user1234 18/08/2026
Vulco Q80184403 170 osm_user1234 18/08/2026
Brico Dépôt Q2889702 170 osm_user1234 18/08/2026
Dessange Q62979914 145 osm_user1234 18/08/2026
Human Immobilier Q102352527 160 osm_user1234 18/08/2026
ECF Q114870266 150 osm_user1234 18/08/2026
Lissac Q63102559 160 osm_user1234 18/08/2026
Monceau Fleurs Q17629431 165 osm_user1234 18/08/2026
Best Western Q830334 170 osm_user1234 18/08/2026
GMF Q3095296 170 osm_user1234 18/08/2026
Courir Q3001258 170 osm_user1234 18/08/2026
Julien d'Orcel Q62497463 170 osm_user1234 18/08/2026
Leonidas Q80335 175 osm_user1234 18/08/2026
Gedimat Q101852953 175 osm_user1234 18/08/2026
Caroll Q63063871 180 osm_user1234 18/08/2026
Generali Q670482 195 osm_user1234 18/08/2026
Adecco Q353494 190 osm_user1234 18/08/2026
G20 Q3504731 190 osm_user1234 18/08/2026
Cache Cache Q63064086 190 osm_user1234 18/08/2026
Jean Louis David Q64445174 190 osm_user1234 18/08/2026
Besson Chaussures Q2899930 200 osm_user1234 18/08/2026 osm_user1234 le 27/08/2026
L'Orange bleue Q3204640 200 osm_user1234 18/08/2026
Coiff&Co Q115013410 200 osm_user1234 18/08/2026
Roc-Eclerc Q62558102 200 osm_user1234 18/08/2026
Okaïdi Q3350027 215 osm_user1234 18/08/2026
Body Minute Q104972220 215 osm_user1234 18/08/2026
La Mie Câline Q3210704 230 osm_user1234 18/08/2026
Manpower Q1472539 230 osm_user1234 18/08/2026
Europcar Q1376256 250 osm_user1234 18/08/2026
Foncia Q1435638 240 osm_user1234 18/08/2026
Start People Q2646530 230 osm_user1234 18/08/2026
Devred Q3025542 240 osm_user1234 18/08/2026
Weldom Q16683226 250 osm_user1234 18/08/2026
Promod Q3407429 300 osm_user1234 18/08/2026
Audika Q2870745 300 osm_user1234 18/08/2026
GAN Q3095058 320 osm_user1234 18/08/2026
Proman Q24189171 320 osm_user1234 18/08/2026
Randstad Q267840 320 osm_user1234 18/08/2026
Tchip Q62871250 320 osm_user1234 18/08/2026
PFG Q3396087 320 osm_user1234 18/08/2026
AD Q108753388 350 osm_user1234 18/08/2026
Square Habitat Q64027038 340 osm_user1234 18/08/2026
Grand Frais Q3114675 350 osm_user1234 18/08/2026
Speedy Q3492969 350 osm_user1234 18/08/2026
B&B Hotels Q794939 370 osm_user1234 18/08/2026
Autosur Q64224807 430 osm_user1234 18/08/2026
Générale d'Optique Q62391701 440 osm_user1234 18/08/2026
La Grande Récré Q3209556 120 K12230LF 17/08/2026 osm_user1234 le 25/08/2026
Mango Q136503 180 K12230LF 17/08/2026 osm_user1234 le 25/08/2026
Nature & Découvertes Q3337111 80 K12230LF 17/08/2026 osm_user1234 le 25/08/2026
Marc Orian Q99848767 50 K12230LF 17/08/2026 osm_user1234 le 25/08/2026
Desigual Q83750 13 K12230LF 17/08/2026 osm_user1234 le 25/08/2026
Sephora Q2408041 275 K12230LF 17/08/2026 osm_user1234 le 25/08/2026
3 Brasseurs Q3230326 60 K12230LF 17/08/2026 osm_user1234 le 25/08/2026
Quick Q286494 190 K12230LF 17/08/2026 osm_user1234 le 25/08/2026
Pomme de Pain Q3276265 22 K12230LF 17/08/2026 osm_user1234 le 25/08/2026
Tommy Hilfiger Q634881 45 K12230LF 17/08/2026 osm_user1234 le 25/08/2026
Celio Q2672003 310 K12230LF 17/08/2026 osm_user1234 le 25/08/2026
Micromania Q3312221 240 K12230LF 17/08/2026 osm_user1234 le 25/08/2026
Brioche Dorée Q2925606 201 K12230LF 17/08/2026 osm_user1234 le 26/08/2026
Buffalo Grill Q944655 350 K12230LF 17/08/2026 osm_user1234 le 26/08/2026
But Q2877537 330 K12230LF 17/08/2026 osm_user1234 le 25/08/2026
King Jouet Q3197009 400 K12230LF 17/08/2026 osm_user1234 le 25/08/2026
Camping Car Park 750 K12230LF 17/08/2026 K12230LF le 25/08/2026
Proxi Q3408522 1050 K12230LF 17/08/2026 osm_user1234 le 25/08/2026
Nocibé Q3342592 350 K12230LF 17/08/2026 osm_user1234 le 25/08/2026
Camara Q2930917 100 K12230LF 17/08/2026 osm_user1234 le 25/08/2026
Yves Rocher Q1477321 680 K12230LF 17/08/2026 Rémi_ le 25/08/2026
On Air Q138313370 118 Rémi_ 16/08/2026
Snipes Q42306166 43 jubonhomme 14/08/2026 K12230LF le 25/08/2026
Boulangerie Feuillette Q136205449 100 jubonhomme 14/08/2026 K12230LF le 25/08/2026
TEDi Q1364603 85 jubonhomme 14/08/2026 K12230LF le 25/08/2026
naturéO Q6981018 30 jubonhomme 14/08/2026 osm_user1234 le 25/08/2026
Carglass Q1035997 260 K12230LF 14/08/2026 osm_user1234 le 25/08/2026
Point S Q3393358 280 K12230LF 14/08/2026 osm_user1234 le 25/08/2026
Campanile Q2412064 380 K12230LF 14/08/2026 osm_user1234 le 26/08/2026
AutoDistribution Q139825482 350 K12230LF 14/08/2026 osm_user1234 le 25/08/2026
Samsic emploi Q136431282 381 K12230LF 14/08/2026 osm_user1234 le 25/08/2026
MMA Q3331046 775 K12230LF 14/08/2026 osm_user1234 le 25/08/2026
Groupama Q3083531 1050 K12230LF 14/08/2026 osm_user1234 le 25/08/2026
Pimkie Q1758066 225 K12230LF 14/08/2026 Rémi_ le 25/08/2026
Allianz Q487292 1100 K12230LF 14/08/2026 osm_user1234 le 25/08/2026
Viasanté 100 K12230LF 14/08/2026
France Pare-Brise Q63335107 180 K12230LF 14/08/2026 osm_user1234 le 25/08/2026
Mondial Relay Q3320547 9000 K12230LF 14/08/2026 K12230LF le 25/08/2026
Emmaüs Q989437 200 K12230LF 14/08/2026 osm_user1234 le 25/08/2026
Rexel Q962489 180 K12230LF 14/08/2026 osm_user1234 le 25/08/2026
BigMat Q101851862 140 K12230LF 14/08/2026 osm_user1234 le 25/08/2026
Centrakor Q64079345 340 K12230LF 14/08/2026 osm_user1234 le 25/08/2026
Litrimarché Q127446387 100 K12230LF 14/08/2026 osm_user1234 le 25/08/2026
CEDEO Q30255936 300 K12230LF 14/08/2026
Société protectrice des animaux Q47391644 75 Rémi_ 13/08/2026 K12230LF le 25/08/2026
Rapid Pare-Brise Q112064766 150 Rémi_ 13/08/2026
Au Bureau Q100701566 214 Rémi_ 13/08/2026 K12230LF le 25/08/2026
Boulanger Q2921695 220 Rémi_ 13/08/2026
JouéClub Q3187152 250 Rémi_ 13/08/2026
Guy Hoquet Q25383970 250 Rémi_ 13/08/2026
FNAC Q676585 300 Rémi_ 13/08/2026
Conforama Q541134 300 Rémi_ 13/08/2026
Point P Q62973104 400 Rémi_ 13/08/2026
Feu Vert Q3070922 450 Rémi_ 13/08/2026
Accord Bio Q140930088 290 Nomel 07/08/2026
UGC Q1643241 30 Rémi_ 05/05/2026
Aroma-Zone Q56317220 34 Hagatopaxi 05/05/2026 K12230LF le 25/08/2026
Audition Santé Q141156321 90 Hagatopaxi 05/05/2026 osm_user1234 le 25/08/2026
Maaf Q3331028 Hagatopaxi 05/05/2026
Bricorama Q2925146 79 Hagatopaxi 05/05/2026 K12230LF le 25/08/2026
Tasty Crousty Q135185035 50 Rémi_ 04/05/2026